Pagina principală
METAR-TAF:

METAR-TAF

Aeroporturi :

Marshall, Texas, Statele Unite ale Americii

Latitudine: 32-31-14N, longitudine: 094-18-28W, elevație: 109 m

Observații meteo curente

Raportul a fost făcut în urmă cu 1 oră și 2 de minute, la 22:15 UTC
Vânt 5 kt de la Sud-vest
Temperatură 34°C
Umiditate 56%
Presiune 1015 hPa
Vizibilitate: 16.1 km
Cer senin

METAR: KASL 222215Z AUTO 22005KT 10SM CLR 34/24 A2996 RMK AO2 T03380242 $

Ora: 17:17 (23:17 UTC)


TAF: lipsă

Observații și prognoze meteo pentru peste 4.000 de aeroporturi (rapoarte METAR și TAF).

Stațiile disponibile sunt reprezentate pe hartă prin puncte galbene și roșii.

Țineți indicatorul mouse-ului pe punctul dorit pentru a vedea denumirea stației.

Apoi, faceți clic pentru a vedea observațiile și prognozele meteorologice.

Pentru a schimba harta: Pentru mărire, faceți clic pe butoanele verzi cu cruce neagră; pentru micșorare, pe butonul verde cu o liniuță; pentru hărți învecinate, pe săgețile verzi.


METAR-TAF: